Location: Laverne
(36.7100°N, 99.8930°W)
Time: 02:18:54
(UTC-06:00)

ADEOS II - Pass Details

Date: 19 October 2017
Orbit: 800 x 801 km, 98.4° (Epoch: 20 November)

Event Time Altitude Azimuth Distance (km) Brightness Sun altitude
Rises 05:28:12 0° 8° (N) 3,317 5.5 -29.3°
Reaches altitude 10° 05:30:34 10° 6° (N) 2,383 4.7 -28.8°
Enters shadow 05:33:24 32° 355° (N) 1,342 3.2 -28.2°
